Year,Month,Day,Hour,Minute,Value (Times are PST for temperature in C)
2010,08,04,00,00,16.80
2010,08,04,00,01,16.80
2010,08,04,00,02,16.80
2010,08,04,00,03,16.80
2010,08,04,00,04,16.80
2010,08,04,00,05,16.80
2010,08,04,00,06,16.80
2010,08,04,00,07,16.80
2010,08,04,00,08,16.80
2010,08,04,00,09,16.80
2010,08,04,00,10,16.80
2010,08,04,00,11,16.80
2010,08,04,00,12,16.80
2010,08,04,00,13,16.80
2010,08,04,00,14,16.80
2010,08,04,00,15,16.80
2010,08,04,00,16,16.80
2010,08,04,00,17,16.80
2010,08,04,00,18,16.80
2010,08,04,00,19,16.80
2010,08,04,00,20,16.80
2010,08,04,00,21,16.80
2010,08,04,00,22,16.80
2010,08,04,00,23,16.80
2010,08,04,00,24,16.80
2010,08,04,00,25,16.80
2010,08,04,00,26,16.80
2010,08,04,00,27,16.80
2010,08,04,00,28,16.80
2010,08,04,00,29,16.80
2010,08,04,00,30,16.80
2010,08,04,00,31,16.80
2010,08,04,00,32,16.80
2010,08,04,00,33,16.80
2010,08,04,00,34,16.80
2010,08,04,00,35,16.80
2010,08,04,00,36,16.80
2010,08,04,00,37,16.80
2010,08,04,00,38,16.80
2010,08,04,00,39,16.80
2010,08,04,00,40,16.80
2010,08,04,00,41,16.80
2010,08,04,00,42,16.80
2010,08,04,00,43,16.80
2010,08,04,00,44,16.80
2010,08,04,00,45,16.80
2010,08,04,00,46,16.80
2010,08,04,00,47,16.70
2010,08,04,00,48,16.70
2010,08,04,00,49,16.70
2010,08,04,00,50,16.70
2010,08,04,00,51,16.70
2010,08,04,00,52,16.70
2010,08,04,00,53,16.70
2010,08,04,00,54,16.70
2010,08,04,00,55,16.70
2010,08,04,00,56,16.70
2010,08,04,00,57,16.70
2010,08,04,00,58,16.70
2010,08,04,00,59,16.70
2010,08,04,01,00,16.70
2010,08,04,01,01,16.70
2010,08,04,01,02,16.70
2010,08,04,01,03,16.70
2010,08,04,01,04,16.70
2010,08,04,01,05,16.70
2010,08,04,01,06,16.70
2010,08,04,01,07,16.70
2010,08,04,01,08,16.70
2010,08,04,01,09,16.80
2010,08,04,01,10,16.80
2010,08,04,01,11,16.80
2010,08,04,01,12,16.80
2010,08,04,01,13,16.80
2010,08,04,01,14,16.80
2010,08,04,01,15,16.80
2010,08,04,01,16,16.80
2010,08,04,01,17,16.80
2010,08,04,01,18,16.80
2010,08,04,01,19,16.80
2010,08,04,01,20,16.80
2010,08,04,01,21,16.80
2010,08,04,01,22,16.70
2010,08,04,01,23,16.70
2010,08,04,01,24,16.70
2010,08,04,01,25,16.70
2010,08,04,01,26,16.60
2010,08,04,01,27,16.60
2010,08,04,01,28,16.50
2010,08,04,01,29,16.40
2010,08,04,01,30,16.40
2010,08,04,01,31,16.30
2010,08,04,01,32,16.30
2010,08,04,01,33,16.30
2010,08,04,01,34,16.20
2010,08,04,01,35,16.20
2010,08,04,01,36,16.20
2010,08,04,01,37,16.10
2010,08,04,01,38,16.10
2010,08,04,01,39,16.10
2010,08,04,01,40,16.00
2010,08,04,01,41,16.00
2010,08,04,01,42,16.00
2010,08,04,01,43,16.00
2010,08,04,01,44,16.00
2010,08,04,01,45,15.90
2010,08,04,01,46,15.90
2010,08,04,01,47,15.90
2010,08,04,01,48,15.90
2010,08,04,01,49,15.90
2010,08,04,01,50,15.90
2010,08,04,01,51,15.90
2010,08,04,01,52,15.90
2010,08,04,01,53,15.90
2010,08,04,01,54,15.90
2010,08,04,01,55,15.90
2010,08,04,01,56,15.90
2010,08,04,01,57,15.90
2010,08,04,01,58,15.90
2010,08,04,01,59,15.90
2010,08,04,02,00,15.90
2010,08,04,02,01,15.90
2010,08,04,02,02,15.80
2010,08,04,02,03,15.80
2010,08,04,02,04,15.80
2010,08,04,02,05,15.80
2010,08,04,02,06,15.70
2010,08,04,02,07,15.70
2010,08,04,02,08,15.70
2010,08,04,02,09,15.70
2010,08,04,02,10,15.60
2010,08,04,02,11,15.60
2010,08,04,02,12,15.60
2010,08,04,02,13,15.60
2010,08,04,02,14,15.60
2010,08,04,02,15,15.50
2010,08,04,02,16,15.50
2010,08,04,02,17,15.50
2010,08,04,02,18,15.50
2010,08,04,02,19,15.50
2010,08,04,02,20,15.50
2010,08,04,02,21,15.50
2010,08,04,02,22,15.40
2010,08,04,02,23,15.40
2010,08,04,02,24,15.40
2010,08,04,02,25,15.40
2010,08,04,02,26,15.40
2010,08,04,02,27,15.40
2010,08,04,02,28,15.40
2010,08,04,02,29,15.40
2010,08,04,02,30,15.40
2010,08,04,02,31,15.30
2010,08,04,02,32,15.30
2010,08,04,02,33,15.30
2010,08,04,02,34,15.30
2010,08,04,02,35,15.30
2010,08,04,02,36,15.30
2010,08,04,02,37,15.30
2010,08,04,02,38,15.30
2010,08,04,02,39,15.30
2010,08,04,02,40,15.30
2010,08,04,02,41,15.30
2010,08,04,02,42,15.30
2010,08,04,02,43,15.20
2010,08,04,02,44,15.20
2010,08,04,02,45,15.20
2010,08,04,02,46,15.20
2010,08,04,02,47,15.20
2010,08,04,02,48,15.20
2010,08,04,02,49,15.20
2010,08,04,02,50,15.20
2010,08,04,02,51,15.20
2010,08,04,02,52,15.20
2010,08,04,02,53,15.20
2010,08,04,02,54,15.20
2010,08,04,02,55,15.20
2010,08,04,02,56,15.20
2010,08,04,02,57,15.20
2010,08,04,02,58,15.20
2010,08,04,02,59,15.20
2010,08,04,03,00,15.20
2010,08,04,03,01,15.20
2010,08,04,03,02,15.20
2010,08,04,03,03,15.20
2010,08,04,03,04,15.20
2010,08,04,03,05,15.20
2010,08,04,03,06,15.20
2010,08,04,03,07,15.20
2010,08,04,03,08,15.20
2010,08,04,03,09,15.20
2010,08,04,03,10,15.10
2010,08,04,03,11,15.10
2010,08,04,03,12,15.10
2010,08,04,03,13,15.10
2010,08,04,03,14,15.10
2010,08,04,03,15,15.10
2010,08,04,03,16,15.10
2010,08,04,03,17,15.10
2010,08,04,03,18,15.10
2010,08,04,03,19,15.10
2010,08,04,03,20,15.10
2010,08,04,03,21,15.10
2010,08,04,03,22,15.10
2010,08,04,03,23,15.10
2010,08,04,03,24,15.10
2010,08,04,03,25,15.10
2010,08,04,03,26,15.10
2010,08,04,03,27,15.10
2010,08,04,03,28,15.10
2010,08,04,03,29,15.10
2010,08,04,03,30,15.10
2010,08,04,03,31,15.10
2010,08,04,03,32,15.10
2010,08,04,03,33,15.00
2010,08,04,03,34,15.00
2010,08,04,03,35,15.00
2010,08,04,03,36,15.00
2010,08,04,03,37,15.00
2010,08,04,03,38,15.00
2010,08,04,03,39,14.90
2010,08,04,03,40,14.90
2010,08,04,03,41,14.90
2010,08,04,03,42,14.90
2010,08,04,03,43,14.90
2010,08,04,03,44,14.90
2010,08,04,03,45,14.90
2010,08,04,03,46,14.90
2010,08,04,03,47,14.80
2010,08,04,03,48,14.80
2010,08,04,03,49,14.80
2010,08,04,03,50,14.80
2010,08,04,03,51,14.80
2010,08,04,03,52,14.80
2010,08,04,03,53,14.80
2010,08,04,03,54,14.80
2010,08,04,03,55,14.80
2010,08,04,03,56,14.70
2010,08,04,03,57,14.70
2010,08,04,03,58,14.70
2010,08,04,03,59,14.70
2010,08,04,04,00,14.70
2010,08,04,04,01,14.70
2010,08,04,04,02,14.70
2010,08,04,04,03,14.70
2010,08,04,04,04,14.70
2010,08,04,04,05,14.70
2010,08,04,04,06,14.70
2010,08,04,04,07,14.70
2010,08,04,04,08,14.60
2010,08,04,04,09,14.60
2010,08,04,04,10,14.60
2010,08,04,04,11,14.60
2010,08,04,04,12,14.60
2010,08,04,04,13,14.60
2010,08,04,04,14,14.60
2010,08,04,04,15,14.60
2010,08,04,04,16,14.60
2010,08,04,04,17,14.60
2010,08,04,04,18,14.60
2010,08,04,04,19,14.60
2010,08,04,04,20,14.50
2010,08,04,04,21,14.50
2010,08,04,04,22,14.50
2010,08,04,04,23,14.50
2010,08,04,04,24,14.50
2010,08,04,04,25,14.50
2010,08,04,04,26,14.50
2010,08,04,04,27,14.40
2010,08,04,04,28,14.40
2010,08,04,04,29,14.40
2010,08,04,04,30,14.40
2010,08,04,04,31,14.40
2010,08,04,04,32,14.40
2010,08,04,04,33,14.40
2010,08,04,04,34,14.40
2010,08,04,04,35,14.40
2010,08,04,04,36,14.40
2010,08,04,04,37,14.40
2010,08,04,04,38,14.40
2010,08,04,04,39,14.40
2010,08,04,04,40,14.40
2010,08,04,04,41,14.40
2010,08,04,04,42,14.40
2010,08,04,04,43,14.40
2010,08,04,04,44,14.40
2010,08,04,04,45,14.40
2010,08,04,04,46,14.40
2010,08,04,04,47,14.40
2010,08,04,04,48,14.40
2010,08,04,04,49,14.40
2010,08,04,04,50,14.40
2010,08,04,04,51,14.40
2010,08,04,04,52,14.40
2010,08,04,04,53,14.40
2010,08,04,04,54,14.40
2010,08,04,04,55,14.40
2010,08,04,04,56,14.30
2010,08,04,04,57,14.30
2010,08,04,04,58,14.30
2010,08,04,04,59,14.30
2010,08,04,05,00,14.30
2010,08,04,05,01,14.30
2010,08,04,05,02,14.30
2010,08,04,05,03,14.30
2010,08,04,05,04,14.30
2010,08,04,05,05,14.30
2010,08,04,05,06,14.30
2010,08,04,05,07,14.30
2010,08,04,05,08,14.30
2010,08,04,05,09,14.30
2010,08,04,05,10,14.30
2010,08,04,05,11,14.30
2010,08,04,05,12,14.30
2010,08,04,05,13,14.20
2010,08,04,05,14,14.20
2010,08,04,05,15,14.20
2010,08,04,05,16,14.20
2010,08,04,05,17,14.20
2010,08,04,05,18,14.20
2010,08,04,05,19,14.20
2010,08,04,05,20,14.20
2010,08,04,05,21,14.20
2010,08,04,05,22,14.20
2010,08,04,05,23,14.20
2010,08,04,05,24,14.20
2010,08,04,05,25,14.20
2010,08,04,05,26,14.20
2010,08,04,05,27,14.20
2010,08,04,05,28,14.10
2010,08,04,05,29,14.10
2010,08,04,05,30,14.10
2010,08,04,05,31,14.10
2010,08,04,05,32,14.10
2010,08,04,05,33,14.10
2010,08,04,05,34,14.10
2010,08,04,05,35,14.10
2010,08,04,05,36,14.10
2010,08,04,05,37,14.10
2010,08,04,05,38,14.10
2010,08,04,05,39,14.10
2010,08,04,05,40,14.10
2010,08,04,05,41,14.10
2010,08,04,05,42,14.10
2010,08,04,05,43,14.10
2010,08,04,05,44,14.10
2010,08,04,05,45,14.10
2010,08,04,05,46,14.10
2010,08,04,05,47,14.10
2010,08,04,05,48,14.10
2010,08,04,05,49,14.10
2010,08,04,05,50,14.10
2010,08,04,05,51,14.10
2010,08,04,05,52,14.10
2010,08,04,05,53,14.10
2010,08,04,05,54,14.10
2010,08,04,05,55,14.10
2010,08,04,05,56,14.10
2010,08,04,05,57,14.10
2010,08,04,05,58,14.10
2010,08,04,05,59,14.10
2010,08,04,06,00,14.10
2010,08,04,06,01,14.10
2010,08,04,06,02,14.10
2010,08,04,06,03,14.10
2010,08,04,06,04,14.10
2010,08,04,06,05,14.10
2010,08,04,06,06,14.10
2010,08,04,06,07,14.10
2010,08,04,06,08,14.10
2010,08,04,06,09,14.10
2010,08,04,06,10,14.10
2010,08,04,06,11,14.10
2010,08,04,06,12,14.10
2010,08,04,06,13,14.10
2010,08,04,06,14,14.10
2010,08,04,06,15,14.10
2010,08,04,06,16,14.10
2010,08,04,06,17,14.10
2010,08,04,06,18,14.10
2010,08,04,06,19,14.10
2010,08,04,06,20,14.10
2010,08,04,06,21,14.10
2010,08,04,06,22,14.10
2010,08,04,06,23,14.10
2010,08,04,06,24,14.10
2010,08,04,06,25,14.10
2010,08,04,06,26,14.10
2010,08,04,06,27,14.10
2010,08,04,06,28,14.10
2010,08,04,06,29,14.10
2010,08,04,06,30,14.20
2010,08,04,06,31,14.20
2010,08,04,06,32,14.20
2010,08,04,06,33,14.20
2010,08,04,06,34,14.20
2010,08,04,06,35,14.20
2010,08,04,06,36,14.20
2010,08,04,06,37,14.20
2010,08,04,06,38,14.20
2010,08,04,06,39,14.20
2010,08,04,06,40,14.20
2010,08,04,06,41,14.20
2010,08,04,06,42,14.20
2010,08,04,06,43,14.20
2010,08,04,06,44,14.20
2010,08,04,06,45,14.20
2010,08,04,06,46,14.20
2010,08,04,06,47,14.20
2010,08,04,06,48,14.30
2010,08,04,06,49,14.30
2010,08,04,06,50,14.30
2010,08,04,06,51,14.30
2010,08,04,06,52,14.30
2010,08,04,06,53,14.30
2010,08,04,06,54,14.30
2010,08,04,06,55,14.30
2010,08,04,06,56,14.30
2010,08,04,06,57,14.30
2010,08,04,06,58,14.40
2010,08,04,06,59,14.40
2010,08,04,07,00,14.40
2010,08,04,07,01,14.40
2010,08,04,07,02,14.40
2010,08,04,07,03,14.40
2010,08,04,07,04,14.50
2010,08,04,07,05,14.50
2010,08,04,07,06,14.50
2010,08,04,07,07,14.50
2010,08,04,07,08,14.60
2010,08,04,07,09,14.60
2010,08,04,07,10,14.60
2010,08,04,07,11,14.60
2010,08,04,07,12,14.60
2010,08,04,07,13,14.70
2010,08,04,07,14,14.70
2010,08,04,07,15,14.70
2010,08,04,07,16,14.70
2010,08,04,07,17,14.70
2010,08,04,07,18,14.70
2010,08,04,07,19,14.80
2010,08,04,07,20,14.80
2010,08,04,07,21,14.80
2010,08,04,07,22,14.80
2010,08,04,07,23,14.90
2010,08,04,07,24,14.90
2010,08,04,07,25,14.90
2010,08,04,07,26,15.00
2010,08,04,07,27,15.10
2010,08,04,07,28,15.10
2010,08,04,07,29,15.20
2010,08,04,07,30,15.20
2010,08,04,07,31,15.20
2010,08,04,07,32,15.30
2010,08,04,07,33,15.30
2010,08,04,07,34,15.30
2010,08,04,07,35,15.40
2010,08,04,07,36,15.40
2010,08,04,07,37,15.40
2010,08,04,07,38,15.50
2010,08,04,07,39,15.50
2010,08,04,07,40,15.60
2010,08,04,07,41,15.60
2010,08,04,07,42,15.70
2010,08,04,07,43,15.70
2010,08,04,07,44,15.70
2010,08,04,07,45,15.80
2010,08,04,07,46,15.80
2010,08,04,07,47,15.80
2010,08,04,07,48,15.90
2010,08,04,07,49,15.90
2010,08,04,07,50,15.90
2010,08,04,07,51,16.00
2010,08,04,07,52,16.10
2010,08,04,07,53,16.10
2010,08,04,07,54,16.20
2010,08,04,07,55,16.20
2010,08,04,07,56,16.30
2010,08,04,07,57,16.30
2010,08,04,07,58,16.40
2010,08,04,07,59,16.50
2010,08,04,08,00,16.50
2010,08,04,08,01,16.60
2010,08,04,08,02,16.60
2010,08,04,08,03,16.70
2010,08,04,08,04,16.70
2010,08,04,08,05,16.80
2010,08,04,08,06,16.80
2010,08,04,08,07,16.90
2010,08,04,08,08,16.90
2010,08,04,08,09,17.00
2010,08,04,08,10,17.00
2010,08,04,08,11,17.10
2010,08,04,08,12,17.10
2010,08,04,08,13,17.20
2010,08,04,08,14,17.20
2010,08,04,08,15,17.30
2010,08,04,08,16,17.30
2010,08,04,08,17,17.40
2010,08,04,08,18,17.40
2010,08,04,08,19,17.50
2010,08,04,08,20,17.60
2010,08,04,08,21,17.70
2010,08,04,08,22,17.80
2010,08,04,08,23,17.80
2010,08,04,08,24,17.90
2010,08,04,08,25,18.00
2010,08,04,08,26,18.10
2010,08,04,08,27,18.20
2010,08,04,08,28,18.30
2010,08,04,08,29,18.40
2010,08,04,08,30,18.40
2010,08,04,08,31,18.50
2010,08,04,08,32,18.60
2010,08,04,08,33,18.70
2010,08,04,08,34,18.70
2010,08,04,08,35,18.80
2010,08,04,08,36,18.80
2010,08,04,08,37,18.90
2010,08,04,08,38,18.90
2010,08,04,08,39,19.00
2010,08,04,08,40,19.00
2010,08,04,08,41,19.10
2010,08,04,08,42,19.20
2010,08,04,08,43,19.20
2010,08,04,08,44,19.30
2010,08,04,08,45,19.30
2010,08,04,08,46,19.40
2010,08,04,08,47,19.40
2010,08,04,08,48,19.40
2010,08,04,08,49,19.40
2010,08,04,08,50,19.40
2010,08,04,08,51,19.40
2010,08,04,08,52,19.40
2010,08,04,08,53,19.40
2010,08,04,08,54,19.50
2010,08,04,08,55,19.50
2010,08,04,08,56,19.60
2010,08,04,08,57,19.60
2010,08,04,08,58,19.60
2010,08,04,08,59,19.70
2010,08,04,09,00,19.70
2010,08,04,09,01,19.80
2010,08,04,09,02,19.80
2010,08,04,09,03,19.80
2010,08,04,09,04,19.80
2010,08,04,09,05,19.90
2010,08,04,09,06,19.90
2010,08,04,09,07,19.90
2010,08,04,09,08,20.00
2010,08,04,09,09,20.00
2010,08,04,09,10,20.10
2010,08,04,09,11,20.10
2010,08,04,09,12,20.10
2010,08,04,09,13,20.10
2010,08,04,09,14,20.20
2010,08,04,09,15,20.20
2010,08,04,09,16,20.20
2010,08,04,09,17,20.20
2010,08,04,09,18,20.20
2010,08,04,09,19,20.20
2010,08,04,09,20,20.30
2010,08,04,09,21,20.40
2010,08,04,09,22,20.40
2010,08,04,09,23,20.50
2010,08,04,09,24,20.60
2010,08,04,09,25,20.60
2010,08,04,09,26,20.70
2010,08,04,09,27,20.80
2010,08,04,09,28,20.80
2010,08,04,09,29,20.90
2010,08,04,09,30,20.90
2010,08,04,09,31,20.90
2010,08,04,09,32,21.00
2010,08,04,09,33,21.00
2010,08,04,09,34,21.00
2010,08,04,09,35,21.10
2010,08,04,09,36,21.10
2010,08,04,09,37,21.10
2010,08,04,09,38,21.10
2010,08,04,09,39,21.20
2010,08,04,09,40,21.20
2010,08,04,09,41,21.30
2010,08,04,09,42,21.30
2010,08,04,09,43,21.40
2010,08,04,09,44,21.50
2010,08,04,09,45,21.50
2010,08,04,09,46,21.50
2010,08,04,09,47,21.50
2010,08,04,09,48,21.50
2010,08,04,09,49,21.50
2010,08,04,09,50,21.60
2010,08,04,09,51,21.60
2010,08,04,09,52,21.60
2010,08,04,09,53,21.60
2010,08,04,09,54,21.60
2010,08,04,09,55,21.60
2010,08,04,09,56,21.70
2010,08,04,09,57,21.70
2010,08,04,09,58,21.70
2010,08,04,09,59,21.70
2010,08,04,10,00,21.80
2010,08,04,10,01,21.80
2010,08,04,10,02,21.80
2010,08,04,10,03,21.90
2010,08,04,10,04,21.90
2010,08,04,10,05,21.90
2010,08,04,10,06,22.00
2010,08,04,10,07,22.10
2010,08,04,10,08,22.10
2010,08,04,10,09,22.10
2010,08,04,10,10,22.10
2010,08,04,10,11,22.10
2010,08,04,10,12,22.10
2010,08,04,10,13,22.10
2010,08,04,10,14,22.10
2010,08,04,10,15,22.10
2010,08,04,10,16,22.10
2010,08,04,10,17,22.10
2010,08,04,10,18,22.20
2010,08,04,10,19,22.20
2010,08,04,10,20,22.10
2010,08,04,10,21,22.10
2010,08,04,10,22,22.10
2010,08,04,10,23,22.10
2010,08,04,10,24,22.10
2010,08,04,10,25,22.10
2010,08,04,10,26,22.10
2010,08,04,10,27,22.10
2010,08,04,10,28,22.10
2010,08,04,10,29,22.10
2010,08,04,10,30,22.20
2010,08,04,10,31,22.10
2010,08,04,10,32,22.10
2010,08,04,10,33,22.10
2010,08,04,10,34,22.00
2010,08,04,10,35,22.00
2010,08,04,10,36,22.00
2010,08,04,10,37,22.00
2010,08,04,10,38,22.10
2010,08,04,10,39,22.10
2010,08,04,10,40,22.10
2010,08,04,10,41,22.00
2010,08,04,10,42,21.90
2010,08,04,10,43,21.90
2010,08,04,10,44,21.80
2010,08,04,10,45,21.80
2010,08,04,10,46,21.80
2010,08,04,10,47,21.70
2010,08,04,10,48,21.70
2010,08,04,10,49,21.70
2010,08,04,10,50,21.70
2010,08,04,10,51,21.70
2010,08,04,10,52,21.70
2010,08,04,10,53,21.70
2010,08,04,10,54,21.80
2010,08,04,10,55,21.90
2010,08,04,10,56,22.00
2010,08,04,10,57,22.00
2010,08,04,10,58,22.10
2010,08,04,10,59,22.10
2010,08,04,11,00,22.20
2010,08,04,11,01,22.20
2010,08,04,11,02,22.20
2010,08,04,11,03,22.30
2010,08,04,11,04,22.30
2010,08,04,11,05,22.40
2010,08,04,11,06,22.40
2010,08,04,11,07,22.40
2010,08,04,11,08,22.40
2010,08,04,11,09,22.40
2010,08,04,11,10,22.40
2010,08,04,11,11,22.40
2010,08,04,11,12,22.50
2010,08,04,11,13,22.60
2010,08,04,11,14,22.60
2010,08,04,11,15,22.70
2010,08,04,11,16,22.80
2010,08,04,11,17,22.90
2010,08,04,11,18,23.00
2010,08,04,11,19,23.00
2010,08,04,11,20,23.10
2010,08,04,11,21,23.10
2010,08,04,11,22,23.20
2010,08,04,11,23,23.20
2010,08,04,11,24,23.20
2010,08,04,11,25,23.20
2010,08,04,11,26,23.20
2010,08,04,11,27,23.20
2010,08,04,11,28,23.20
2010,08,04,11,29,23.30
2010,08,04,11,30,23.30
2010,08,04,11,31,23.30
2010,08,04,11,32,23.20
2010,08,04,11,33,23.20
2010,08,04,11,34,23.20
2010,08,04,11,35,23.20
2010,08,04,11,36,23.20
2010,08,04,11,37,23.20
2010,08,04,11,38,23.20
2010,08,04,11,39,23.20
2010,08,04,11,40,23.20
2010,08,04,11,41,23.20
2010,08,04,11,42,23.20
2010,08,04,11,43,23.20
2010,08,04,11,44,23.30
2010,08,04,11,45,23.30
2010,08,04,11,46,23.30
2010,08,04,11,47,23.40
2010,08,04,11,48,23.40
2010,08,04,11,49,23.50
2010,08,04,11,50,23.60
2010,08,04,11,51,23.70
2010,08,04,11,52,23.70
2010,08,04,11,53,23.80
2010,08,04,11,54,23.80
2010,08,04,11,55,23.80
2010,08,04,11,56,23.90
2010,08,04,11,57,23.90
2010,08,04,11,58,23.90
2010,08,04,11,59,23.90
2010,08,04,12,00,23.90
2010,08,04,12,01,24.00
2010,08,04,12,02,24.00
2010,08,04,12,03,24.00
2010,08,04,12,04,24.00
2010,08,04,12,05,24.00
2010,08,04,12,06,24.00
2010,08,04,12,07,24.00
2010,08,04,12,08,24.10
2010,08,04,12,09,24.10
2010,08,04,12,10,24.10
2010,08,04,12,11,24.20
2010,08,04,12,12,24.20
2010,08,04,12,13,24.20
2010,08,04,12,14,24.20
2010,08,04,12,15,24.20
2010,08,04,12,16,24.20
2010,08,04,12,17,24.30
2010,08,04,12,18,24.30
2010,08,04,12,19,24.30
2010,08,04,12,20,24.40
2010,08,04,12,21,24.40
2010,08,04,12,22,24.40
2010,08,04,12,23,24.30
2010,08,04,12,24,24.30
2010,08,04,12,25,24.40
2010,08,04,12,26,24.40
2010,08,04,12,27,24.40
2010,08,04,12,28,24.50
2010,08,04,12,29,24.50
2010,08,04,12,30,24.50
2010,08,04,12,31,24.60
2010,08,04,12,32,24.60
2010,08,04,12,33,24.60
2010,08,04,12,34,24.50
2010,08,04,12,35,24.50
2010,08,04,12,36,24.50
2010,08,04,12,37,24.50
2010,08,04,12,38,24.40
2010,08,04,12,39,24.40
2010,08,04,12,40,24.40
2010,08,04,12,41,24.40
2010,08,04,12,42,24.40
2010,08,04,12,43,24.30
2010,08,04,12,44,24.20
2010,08,04,12,45,24.10
2010,08,04,12,46,24.00
2010,08,04,12,47,23.90
2010,08,04,12,48,23.80
2010,08,04,12,49,23.80
2010,08,04,12,50,23.80
2010,08,04,12,51,23.80
2010,08,04,12,52,23.80
2010,08,04,12,53,23.80
2010,08,04,12,54,23.70
2010,08,04,12,55,23.70
2010,08,04,12,56,23.70
2010,08,04,12,57,23.70
2010,08,04,12,58,23.70
2010,08,04,12,59,23.70
2010,08,04,13,00,23.70
2010,08,04,13,01,23.80
2010,08,04,13,02,23.80
2010,08,04,13,03,23.80
2010,08,04,13,04,23.80
2010,08,04,13,05,23.80
2010,08,04,13,06,23.90
2010,08,04,13,07,23.90
2010,08,04,13,08,23.90
2010,08,04,13,09,23.90
2010,08,04,13,10,23.90
2010,08,04,13,11,23.90
2010,08,04,13,12,23.90
2010,08,04,13,13,24.00
2010,08,04,13,14,24.00
2010,08,04,13,15,24.00
2010,08,04,13,16,24.00
2010,08,04,13,17,24.10
2010,08,04,13,18,24.10
2010,08,04,13,19,24.10
2010,08,04,13,20,24.20
2010,08,04,13,21,24.20
2010,08,04,13,22,24.20
2010,08,04,13,23,24.30
2010,08,04,13,24,24.30
2010,08,04,13,25,24.30
2010,08,04,13,26,24.40
2010,08,04,13,27,24.40
2010,08,04,13,28,24.40
2010,08,04,13,29,24.40
2010,08,04,13,30,24.30
2010,08,04,13,31,24.30
2010,08,04,13,32,24.30
2010,08,04,13,33,24.30
2010,08,04,13,34,24.30
2010,08,04,13,35,24.40
2010,08,04,13,36,24.40
2010,08,04,13,37,24.50
2010,08,04,13,38,24.50
2010,08,04,13,39,24.60
2010,08,04,13,40,24.60
2010,08,04,13,41,24.50
2010,08,04,13,42,24.40
2010,08,04,13,43,24.40
2010,08,04,13,44,24.40
2010,08,04,13,45,24.50
2010,08,04,13,46,24.50
2010,08,04,13,47,24.60
2010,08,04,13,48,24.60
2010,08,04,13,49,24.60
2010,08,04,13,50,24.70
2010,08,04,13,51,24.70
2010,08,04,13,52,24.70
2010,08,04,13,53,24.80
2010,08,04,13,54,24.80
2010,08,04,13,55,24.80
2010,08,04,13,56,24.80
2010,08,04,13,57,24.80
2010,08,04,13,58,24.70
2010,08,04,13,59,24.70
2010,08,04,14,00,24.70
2010,08,04,14,01,24.70
2010,08,04,14,02,24.70
2010,08,04,14,03,24.70
2010,08,04,14,04,24.70
2010,08,04,14,05,24.60
2010,08,04,14,06,24.60
2010,08,04,14,07,24.60
2010,08,04,14,08,24.60
2010,08,04,14,09,24.60
2010,08,04,14,10,24.60
2010,08,04,14,11,24.50
2010,08,04,14,12,24.50
2010,08,04,14,13,24.40
2010,08,04,14,14,24.40
2010,08,04,14,15,24.30
2010,08,04,14,16,24.30
2010,08,04,14,17,24.30
2010,08,04,14,18,24.30
2010,08,04,14,19,24.30
2010,08,04,14,20,24.30
2010,08,04,14,21,24.30
2010,08,04,14,22,24.40
2010,08,04,14,23,24.50
2010,08,04,14,24,24.60
2010,08,04,14,25,24.70
2010,08,04,14,26,24.70
2010,08,04,14,27,24.70
2010,08,04,14,28,24.60
2010,08,04,14,29,24.70
2010,08,04,14,30,24.70
2010,08,04,14,31,24.80
2010,08,04,14,32,24.80
2010,08,04,14,33,24.80
2010,08,04,14,34,24.90
2010,08,04,14,35,25.00
2010,08,04,14,36,25.00
2010,08,04,14,37,25.10
2010,08,04,14,38,25.10
2010,08,04,14,39,25.20
2010,08,04,14,40,25.30
2010,08,04,14,41,25.30
2010,08,04,14,42,25.40
2010,08,04,14,43,25.50
2010,08,04,14,44,25.50
2010,08,04,14,45,25.50
2010,08,04,14,46,25.50
2010,08,04,14,47,25.50
2010,08,04,14,48,25.50
2010,08,04,14,49,25.50
2010,08,04,14,50,25.50
2010,08,04,14,51,25.60
2010,08,04,14,52,25.60
2010,08,04,14,53,25.60
2010,08,04,14,54,25.70
2010,08,04,14,55,25.70
2010,08,04,14,56,25.70
2010,08,04,14,57,25.70
2010,08,04,14,58,25.70
2010,08,04,14,59,25.70
2010,08,04,15,00,25.80
2010,08,04,15,01,25.80
2010,08,04,15,02,25.80
2010,08,04,15,03,25.80
2010,08,04,15,04,25.80
2010,08,04,15,05,25.80
2010,08,04,15,06,25.80
2010,08,04,15,07,25.90
2010,08,04,15,08,25.90
2010,08,04,15,09,26.00
2010,08,04,15,10,26.10
2010,08,04,15,11,26.20
2010,08,04,15,12,26.20
2010,08,04,15,13,26.30
2010,08,04,15,14,26.30
2010,08,04,15,15,26.40
2010,08,04,15,16,26.40
2010,08,04,15,17,26.40
2010,08,04,15,18,26.40
2010,08,04,15,19,26.30
2010,08,04,15,20,26.30
2010,08,04,15,21,26.20
2010,08,04,15,22,26.20
2010,08,04,15,23,26.20
2010,08,04,15,24,26.20
2010,08,04,15,25,26.20
2010,08,04,15,26,26.20
2010,08,04,15,27,26.20
2010,08,04,15,28,26.20
2010,08,04,15,29,26.20
2010,08,04,15,30,26.20
2010,08,04,15,31,26.20
2010,08,04,15,32,26.20
2010,08,04,15,33,26.20
2010,08,04,15,34,26.20
2010,08,04,15,35,26.10
2010,08,04,15,36,26.10
2010,08,04,15,37,26.00
2010,08,04,15,38,26.00
2010,08,04,15,39,26.00
2010,08,04,15,40,26.00
2010,08,04,15,41,26.00
2010,08,04,15,42,26.00
2010,08,04,15,43,26.10
2010,08,04,15,44,26.10
2010,08,04,15,45,26.10
2010,08,04,15,46,26.10
2010,08,04,15,47,26.10
2010,08,04,15,48,26.20
2010,08,04,15,49,26.20
2010,08,04,15,50,26.30
2010,08,04,15,51,26.40
2010,08,04,15,52,26.50
2010,08,04,15,53,26.50
2010,08,04,15,54,26.60
2010,08,04,15,55,26.60
2010,08,04,15,56,26.60
2010,08,04,15,57,26.60
2010,08,04,15,58,26.60
2010,08,04,15,59,26.60
2010,08,04,16,00,26.60
2010,08,04,16,01,26.50
2010,08,04,16,02,26.50
2010,08,04,16,03,26.40
2010,08,04,16,04,26.30
2010,08,04,16,05,26.30
2010,08,04,16,06,26.30
2010,08,04,16,07,26.30
2010,08,04,16,08,26.30
2010,08,04,16,09,26.30
2010,08,04,16,10,26.30
2010,08,04,16,11,26.30
2010,08,04,16,12,26.30
2010,08,04,16,13,26.20
2010,08,04,16,14,26.10
2010,08,04,16,15,26.10
2010,08,04,16,16,26.00
2010,08,04,16,17,26.00
2010,08,04,16,18,25.90
2010,08,04,16,19,25.90
2010,08,04,16,20,25.90
2010,08,04,16,21,25.90
2010,08,04,16,22,25.90
2010,08,04,16,23,26.00
2010,08,04,16,24,26.00
2010,08,04,16,25,26.20
2010,08,04,16,26,26.30
2010,08,04,16,27,26.30
2010,08,04,16,28,26.30
2010,08,04,16,29,26.30
2010,08,04,16,30,26.30
2010,08,04,16,31,26.30
2010,08,04,16,32,26.30
2010,08,04,16,33,26.30
2010,08,04,16,34,26.20
2010,08,04,16,35,26.30
2010,08,04,16,36,26.30
2010,08,04,16,37,26.30
2010,08,04,16,38,26.20
2010,08,04,16,39,26.20
2010,08,04,16,40,26.20
2010,08,04,16,41,26.20
2010,08,04,16,42,26.30
2010,08,04,16,43,26.30
2010,08,04,16,44,26.30
2010,08,04,16,45,26.30
2010,08,04,16,46,26.30
2010,08,04,16,47,26.40
2010,08,04,16,48,26.30
2010,08,04,16,49,26.30
2010,08,04,16,50,26.30
2010,08,04,16,51,26.20
2010,08,04,16,52,26.20
2010,08,04,16,53,26.20
2010,08,04,16,54,26.20
2010,08,04,16,55,26.20
2010,08,04,16,56,26.10
2010,08,04,16,57,26.10
2010,08,04,16,58,26.10
2010,08,04,16,59,26.10
2010,08,04,17,00,26.10
2010,08,04,17,01,26.10
2010,08,04,17,02,26.10
2010,08,04,17,03,26.10
2010,08,04,17,04,26.10
2010,08,04,17,05,26.10
2010,08,04,17,06,26.10
2010,08,04,17,07,26.10
2010,08,04,17,08,26.00
2010,08,04,17,09,26.00
2010,08,04,17,10,25.90
2010,08,04,17,11,25.90
2010,08,04,17,12,25.80
2010,08,04,17,13,25.80
2010,08,04,17,14,25.80
2010,08,04,17,15,25.70
2010,08,04,17,16,25.70
2010,08,04,17,17,25.70
2010,08,04,17,18,25.70
2010,08,04,17,19,25.70